• Em Portugal
  • Lista de países
  • Para 7 dias
  • Temperatura da água
  • Mapas de satélite
  • Mapa do tempo
  • Widgets de tempo
  • user-avatar
    Iniciar Sessão

    Previsão horária em Escuintla

    Hoje, 22 Junho, Sexta-feira

    Tempo Temperatura Precipitação Vento Pressão Humidade
    00:00 +25°C° 1,4 mm 1 m/s 729 mmHg 90%
    01:00 +25°C° 0,3 mm 1 m/s 729 mmHg 89%
    02:00 +25°C° 0,3 mm 1 m/s 729 mmHg 89%
    03:00 +25°C° 0,3 mm 1 m/s 729 mmHg 88%
    04:00 +25°C° 0,1 mm 1 m/s 729 mmHg 87%
    05:00 +25°C° 0,1 mm 1 m/s 729 mmHg 87%
    06:00 +25°C° 0,1 mm 1 m/s 729 mmHg 86%
    07:00 +26°C° 0,1 mm 1 m/s 729 mmHg 82%
    08:00 +28°C° 0,1 mm 1 m/s 730 mmHg 77%
    09:00 +29°C° 0,1 mm 1 m/s 730 mmHg 72%
    10:00 +30°C° 0,4 mm 1 m/s 730 mmHg 71%
    11:00 +30°C° 0,4 mm 1 m/s 730 mmHg 70%
    12:00 +31°C° 0,4 mm 2 m/s 729 mmHg 69%
    13:00 +31°C° 0,7 mm 2 m/s 729 mmHg 70%
    14:00 +31°C° 0,7 mm 2 m/s 728 mmHg 72%
    15:00 +30°C° 0,7 mm 2 m/s 728 mmHg 73%
    16:00 +29°C° 0,6 mm 2 m/s 728 mmHg 77%
    17:00 +29°C° 0,6 mm 1 m/s 728 mmHg 80%
    18:00 +28°C° 0,6 mm 1 m/s 728 mmHg 84%
    19:00 +27°C° 0,3 mm 1 m/s 728 mmHg 86%
    20:00 +26°C° 0,3 mm 1 m/s 729 mmHg 87%
    21:00 +25°C° 0,3 mm 1 m/s 729 mmHg 89%
    22:00 +25°C° 0,1 mm 1 m/s 729 mmHg 89%
    23:00 +25°C° 0,1 mm 1 m/s 729 mmHg 89%

    Amanhã, 23 Junho, Sábado

    Tempo Temperatura Precipitação Vento Pressão Humidade
    00:00 +25°C° 0,1 mm 1 m/s 729 mmHg 89%
    01:00 +25°C° 0 mm 1 m/s 729 mmHg 88%
    02:00 +24°C° 0 mm 1 m/s 729 mmHg 88%
    03:00 +24°C° 0 mm 1 m/s 728 mmHg 88%
    04:00 +24°C° 0 mm 1 m/s 728 mmHg 87%
    05:00 +24°C° 0 mm 1 m/s 729 mmHg 86%
    06:00 +24°C° 0 mm 1 m/s 729 mmHg 84%
    07:00 +26°C° 0 mm 1 m/s 729 mmHg 75%
    08:00 +29°C° 0 mm 1 m/s 729 mmHg 65%
    09:00 +31°C° 0 mm 1 m/s 730 mmHg 55%
    10:00 +32°C° 0 mm 1 m/s 729 mmHg 53%
    11:00 +34°C° 0 mm 2 m/s 729 mmHg 51%
    12:00 +35°C° 0 mm 2 m/s 729 mmHg 49%
    13:00 +35°C° 0,3 mm 2 m/s 728 mmHg 54%
    14:00 +34°C° 0,3 mm 2 m/s 728 mmHg 59%
    15:00 +34°C° 0,3 mm 2 m/s 727 mmHg 64%
    16:00 +31°C° 0,6 mm 2 m/s 727 mmHg 70%
    17:00 +30°C° 0,6 mm 2 m/s 727 mmHg 76%
    18:00 +29°C° 0,6 mm 1 m/s 727 mmHg 82%
    19:00 +28°C° 1,8 mm 1 m/s 728 mmHg 84%
    20:00 +27°C° 1,8 mm 1 m/s 728 mmHg 87%
    21:00 +26°C° 1,8 mm 1 m/s 729 mmHg 89%
    22:00 +26°C° 0,8 mm 1 m/s 729 mmHg 89%
    23:00 +26°C° 0,8 mm 1 m/s 729 mmHg 89%

    Depois de amanhã, 24 Junho, Domingo

    Tempo Temperatura Precipitação Vento Pressão Humidade
    00:00 +26°C° 0,8 mm 1 m/s 729 mmHg 89%
    01:00 +26°C° 0 mm 1 m/s 729 mmHg 88%
    02:00 +26°C° 0 mm 1 m/s 728 mmHg 87%
    03:00 +26°C° 0 mm 1 m/s 728 mmHg 87%
    04:00 +25°C° 0,3 mm 1 m/s 728 mmHg 86%
    05:00 +25°C° 0,3 mm 1 m/s 728 mmHg 86%
    06:00 +25°C° 0,3 mm 1 m/s 728 mmHg 86%
    07:00 +27°C° 0,1 mm 1 m/s 728 mmHg 80%
    08:00 +28°C° 0,1 mm 1 m/s 729 mmHg 74%
    09:00 +30°C° 0,1 mm 1 m/s 729 mmHg 68%
    10:00 +32°C° 0 mm 1 m/s 729 mmHg 62%
    11:00 +33°C° 0 mm 1 m/s 729 mmHg 56%
    12:00 +36°C° 0 mm 2 m/s 729 mmHg 50%
    13:00 +35°C° 0,5 mm 2 m/s 728 mmHg 56%
    14:00 +34°C° 0,5 mm 2 m/s 728 mmHg 62%
    15:00 +32°C° 0,5 mm 2 m/s 727 mmHg 67%
    16:00 +31°C° 0,9 mm 2 m/s 727 mmHg 72%
    17:00 +30°C° 0,9 mm 1 m/s 727 mmHg 76%
    18:00 +29°C° 0,9 mm 1 m/s 727 mmHg 81%
    19:00 +28°C° 0,9 mm 1 m/s 728 mmHg 83%
    20:00 +27°C° 0,9 mm 1 m/s 728 mmHg 85%
    21:00 +26°C° 0,9 mm 1 m/s 729 mmHg 87%
    22:00 +26°C° 0,6 mm 1 m/s 729 mmHg 87%
    23:00 +25°C° 0,6 mm 1 m/s 729 mmHg 87%

    25 Junho, Segunda-feira

    Tempo Temperatura Precipitação Vento Pressão Humidade
    00:00 +25°C° 0,6 mm 1 m/s 729 mmHg 86%
    01:00 +25°C° 0,9 mm 1 m/s 729 mmHg 86%
    02:00 +25°C° 0,9 mm 1 m/s 728 mmHg 86%
    03:00 +24°C° 0,9 mm 2 m/s 728 mmHg 85%
    04:00 +24°C° 0,1 mm 1 m/s 728 mmHg 84%
    05:00 +24°C° 0,1 mm 1 m/s 728 mmHg 83%
    06:00 +25°C° 0,1 mm 1 m/s 728 mmHg 82%
    07:00 +27°C° 0 mm 1 m/s 729 mmHg 74%
    08:00 +29°C° 0 mm 1 m/s 729 mmHg 66%
    09:00 +32°C° 0 mm 1 m/s 730 mmHg 58%
    10:00 +32°C° 0,3 mm 1 m/s 729 mmHg 60%
    11:00 +32°C° 0,3 mm 2 m/s 729 mmHg 62%
    12:00 +34°C° 0,3 mm 2 m/s 729 mmHg 64%
    13:00 +32°C° 1,2 mm 2 m/s 728 mmHg 67%
    14:00 +32°C° 1,2 mm 2 m/s 728 mmHg 71%
    15:00 +31°C° 1,2 mm 2 m/s 728 mmHg 74%
    16:00 +30°C° 0,9 mm 2 m/s 728 mmHg 77%
    17:00 +29°C° 0,9 mm 1 m/s 728 mmHg 80%
    18:00 +29°C° 0,9 mm 1 m/s 728 mmHg 84%
    19:00 +28°C° 0,7 mm 1 m/s 728 mmHg 85%
    20:00 +27°C° 0,7 mm 1 m/s 729 mmHg 87%
    21:00 +26°C° 0,7 mm 1 m/s 729 mmHg 88%
    22:00 +25°C° 0,7 mm 1 m/s 729 mmHg 89%
    23:00 +25°C° 0,7 mm 1 m/s 729 mmHg 89%

    26 Junho, Terça-feira

    Tempo Temperatura Precipitação Vento Pressão Humidade
    00:00 +25°C° 0,7 mm 1 m/s 729 mmHg 89%
    01:00 +24°C° 0,5 mm 2 m/s 729 mmHg 88%
    02:00 +24°C° 0,5 mm 2 m/s 729 mmHg 88%
    03:00 +24°C° 0,5 mm 2 m/s 728 mmHg 87%
    04:00 +24°C° 0 mm 2 m/s 728 mmHg 85%
    05:00 +24°C° 0 mm 2 m/s 729 mmHg 84%
    06:00 +24°C° 0 mm 2 m/s 729 mmHg 82%
    07:00 +26°C° 0 mm 1 m/s 729 mmHg 75%
    08:00 +29°C° 0 mm 1 m/s 730 mmHg 67%
    09:00 +31°C° 0 mm 1 m/s 730 mmHg 60%
    10:00 +31°C° 0,2 mm 1 m/s 730 mmHg 60%
    11:00 +32°C° 0,2 mm 2 m/s 729 mmHg 60%
    12:00 +34°C° 0,2 mm 2 m/s 729 mmHg 60%
    13:00 +32°C° 1,1 mm 2 m/s 729 mmHg 67%
    14:00 +31°C° 1,1 mm 2 m/s 728 mmHg 73%
    15:00 +30°C° 1,1 mm 2 m/s 728 mmHg 79%
    16:00 +29°C° 1,5 mm 1 m/s 728 mmHg 81%
    17:00 +28°C° 1,5 mm 1 m/s 728 mmHg 84%
    18:00 +27°C° 1,5 mm 1 m/s 729 mmHg 86%
    19:00 +27°C° 1 mm 1 m/s 729 mmHg 87%
    20:00 +26°C° 1 mm 1 m/s 729 mmHg 88%
    21:00 +26°C° 1 mm 1 m/s 730 mmHg 89%
    22:00 +26°C° 1 mm 1 m/s 730 mmHg 90%
    23:00 +25°C° 1 mm 1 m/s 730 mmHg 90%

    27 Junho, Quarta-feira

    Tempo Temperatura Precipitação Vento Pressão Humidade
    00:00 +25°C° 1 mm 1 m/s 730 mmHg 90%
    01:00 +25°C° 0,4 mm 1 m/s 729 mmHg 90%
    02:00 +25°C° 0,4 mm 1 m/s 729 mmHg 90%
    03:00 +25°C° 0,4 mm 1 m/s 728 mmHg 89%
    04:00 +24°C° 0,2 mm 1 m/s 729 mmHg 89%
    05:00 +24°C° 0,2 mm 1 m/s 729 mmHg 88%
    06:00 +24°C° 0,2 mm 1 m/s 729 mmHg 87%
    07:00 +26°C° 0 mm 1 m/s 729 mmHg 82%
    08:00 +27°C° 0 mm 1 m/s 730 mmHg 76%
    09:00 +29°C° 0 mm 1 m/s 730 mmHg 70%
    10:00 +30°C° 0 mm 2 m/s 730 mmHg 66%
    11:00 +31°C° 0 mm 2 m/s 729 mmHg 61%
    12:00 +34°C° 0 mm 2 m/s 729 mmHg 57%
    13:00 +32°C° 0,3 mm 2 m/s 728 mmHg 62%
    14:00 +33°C° 0,3 mm 3 m/s 728 mmHg 66%
    15:00 +33°C° 0,3 mm 3 m/s 727 mmHg 71%
    16:00 +30°C° 1,5 mm 3 m/s 727 mmHg 77%
    17:00 +29°C° 1,5 mm 2 m/s 727 mmHg 82%
    18:00 +28°C° 1,5 mm 2 m/s 728 mmHg 88%
    19:00 +27°C° 1,5 mm 2 m/s 728 mmHg 89%
    20:00 +26°C° 1,5 mm 2 m/s 729 mmHg 89%
    21:00 +26°C° 1,5 mm 2 m/s 729 mmHg 90%
    22:00 +26°C° 0,1 mm 2 m/s 729 mmHg 90%
    23:00 +25°C° 0,1 mm 2 m/s 729 mmHg 90%
    Mostrar mais